FW8116 Weather Reports


time (UTC)temp
C
wind
direction
speed
KPH
gust
KPH
rain 1hr
cm
rain 24hr
cm
rain mn
cm
humidity
%
barometer
mb
20260502183514 12 0 0.0 1.6 0.00 0.41 0.41 94 1012.3
20260502183031 11 0 0.0 1.6 0.00 0.41 0.41 94 1012.2
20260502182512 12 0 0.0 1.6 0.00 0.41 0.41 94 1012.4
20260502182013 12 0 0.0 1.6 0.00 0.41 0.41 95 1012.6
20260502181530 11 0 0.0 3.2 0.00 0.41 0.41 94 1012.6
20260502181015 11 0 0.0 4.8 0.00 0.41 0.41 95 1012.6
20260502180512 11 0 0.0 4.8 0.00 0.41 0.41 95 1012.6
20260502170511 11 0 0.0 4.8 0.03 0.41 0.41 95 1013.1
20260502164016 11 0 0.0 3.2 0.03 0.38 0.38 95 1013.4
20260502163511 11 0 0.0 3.2 0.03 0.38 0.38 95 1013.5
20260502163032 11 0 0.0 1.6 0.03 0.38 0.38 95 1013.7
20260502162513 11 0 0.0 1.6 0.03 0.38 0.38 95 1013.9
20260502162014 11 0 0.0 4.8 0.03 0.38 0.38 95 1013.9
20260502161529 11 0 0.0 4.8 0.03 0.38 0.38 95 1014.1
20260502161013 11 0 0.0 1.6 0.03 0.38 0.38 95 1014.0
20260502160516 11 0 0.0 3.2 0.05 0.38 0.38 95 1014.0
20260502152010 11 0 0.0 1.6 0.08 0.36 0.36 95 1013.7
20260502151531 11 0 0.0 1.6 0.08 0.36 0.36 95 1013.6
20260502151015 11 0 0.0 1.6 0.10 0.36 0.36 95 1013.6
20260502150512 11 0 0.0 0.0 0.08 0.33 0.33 95 1013.9
20260502130513 11 313 0.0 8.0 0.08 0.10 0.10 93 1012.6
20260502123510 11 0 0.0 4.8 0.05 0.05 0.05 92 1012.4
20260502123028 11 0 0.0 3.2 0.05 0.05 0.05 92 1012.3
20260502122512 11 0 0.0 3.2 0.05 0.05 0.05 92 1012.1
20260502122015 11 0 0.0 0.0 0.05 0.05 0.05 92 1012.2
20260502121530 11 0 0.0 1.6 0.03 0.03 0.03 92 1012.3
20260502121014 11 0 0.0 1.6 0.03 0.03 0.03 91 1012.3
20260502120514 11 0 0.0 1.6 0.03 0.03 0.03 91 1012.2
20260502115514 11 0 0.0 3.2 0.03 0.03 0.03 90 1012.3
20260502115017 11 0 0.0 3.2 0.03 0.03 0.03 90 1012.4
20260502114530 11 0 0.0 1.6 0.03 0.03 0.03 90 1012.5
20260502114013 11 0 0.0 4.8 0.00 0.00 0.00 89 1012.3
20260502113513 11 0 0.0 4.8 0.00 0.00 0.00 89 1012.3
20260502113028 11 321 0.0 4.8 0.00 0.00 0.00 89 1012.4
20260502112510 11 0 0.0 4.8 0.00 0.00 0.00 88 1012.5
20260502112011 11 344 0.0 4.8 0.00 0.00 0.00 88 1012.5
20260502111527 11 336 0.0 4.8 0.00 0.00 0.00 88 1012.6
20260502111014 11 0 0.0 4.8 0.00 0.00 0.00 87 1012.7
20260502110513 11 0 0.0 3.2 0.00 0.00 0.00 87 1012.8
20260502110030 11 0 0.0 4.8 0.00 0.00 0.00 86 1012.7
20260502105512 11 0 0.0 8.0 0.00 0.00 0.00 86 1012.5
20260502105011 11 298 1.6 14.5 0.00 0.00 0.00 85 1012.4
20260502104539 12 338 1.6 14.5 0.00 0.00 0.00 86 1012.5
20260502104010 12 15 3.2 11.3 0.00 0.00 0.00 86 1012.4
20260502103511 12 315 1.6 8.0 0.00 0.00 0.00 87 1012.7
20260502103028 12 338 1.6 6.4 0.00 0.00 0.00 87 1012.7
20260502102510 12 307 1.6 6.4 0.00 0.00 0.00 88 1012.9
20260502102010 11 0 0.0 3.2 0.00 0.00 0.00 88 1012.5
20260502101534 11 0 0.0 3.2 0.00 0.00 0.00 89 1012.6
20260502101010 11 0 0.0 8.0 0.00 0.00 0.00 89 1012.5
20260502100510 11 300 0.0 8.0 0.00 0.00 0.00 90 1012.5
20260502091014 11 0 0.0 3.2 0.00 0.00 0.00 90 1012.4
20260502090510 11 0 0.0 3.2 0.00 0.00 0.00 90 1012.4
20260502071532 11 0 0.0 0.0 0.00 0.00 0.00 91 1011.8
20260502071014 11 0 0.0 0.0 0.00 0.00 0.00 91 1011.8
20260502070513 11 0 0.0 0.0 0.00 0.00 0.00 91 1011.9
20260502070032 11 0 0.0 0.0 0.00 0.00 0.00 91 1011.7
20260502065510 11 0 0.0 0.0 0.00 0.00 0.00 91 1011.6
20260502065015 11 0 0.0 0.0 0.00 0.00 0.00 90 1011.7
20260502064534 11 0 0.0 0.0 0.00 0.00 0.00 90 1011.7
20260502064014 11 0 0.0 0.0 0.00 0.00 0.00 90 1011.7
20260502063512 11 0 0.0 0.0 0.00 0.00 0.00 90 1011.9
20260502063031 11 0 0.0 0.0 0.00 0.00 0.00 90 1011.9
20260502062513 11 0 0.0 0.0 0.00 0.00 0.00 90 1012.1
20260502062016 11 0 0.0 0.0 0.00 0.00 0.00 90 1011.9
20260502061534 11 0 0.0 0.0 0.00 0.00 0.00 90 1011.9
20260502061012 11 0 0.0 0.0 0.00 0.00 0.00 90 1011.9
20260502060513 11 0 0.0 0.0 0.00 0.00 0.00 90 1011.9
20260502060028 11 0 0.0 0.0 0.00 0.00 0.00 90 1011.9
20260502055513 11 0 0.0 0.0 0.00 0.00 0.00 90 1012.0
20260502055014 11 0 0.0 0.0 0.00 0.00 0.00 90 1012.0
20260502054530 11 0 0.0 0.0 0.00 0.00 0.00 90 1012.2
20260502054016 11 0 0.0 0.0 0.00 0.00 0.00 89 1012.1
20260502053510 11 0 0.0 0.0 0.00 0.00 0.00 90 1012.3
20260502053030 11 0 0.0 0.0 0.00 0.00 0.00 90 1012.3
20260502052514 11 0 0.0 0.0 0.00 0.00 0.00 89 1012.3
20260502052013 11 0 0.0 0.0 0.00 0.00 0.00 89 1012.3
20260502051528 11 0 0.0 0.0 0.00 0.00 0.00 89 1012.4
20260502051014 11 0 0.0 0.0 0.00 0.00 0.00 89 1012.4
20260502050511 11 0 0.0 0.0 0.00 0.00 0.00 89 1012.5
20260502050030 11 0 0.0 0.0 0.00 0.00 0.00 89 1012.7
20260502045513 11 0 0.0 0.0 0.00 0.00 0.00 89 1012.4
20260502045014 11 0 0.0 0.0 0.00 0.00 0.00 88 1012.5
20260502044529 11 0 0.0 0.0 0.00 0.00 0.00 88 1012.5
20260502044013 11 0 0.0 0.0 0.00 0.00 0.00 88 1012.8
20260502043513 11 0 0.0 0.0 0.00 0.00 0.00 88 1012.5
20260502043030 11 0 0.0 0.0 0.00 0.00 0.00 88 1012.6
20260502042515 11 0 0.0 0.0 0.00 0.00 0.00 88 1012.6
20260502042013 11 0 0.0 0.0 0.00 0.00 0.00 87 1012.8
20260502041536 11 0 0.0 0.0 0.00 0.00 0.00 87 1012.8
20260502041013 11 0 0.0 0.0 0.00 0.00 0.00 87 1012.9
20260502040517 11 0 0.0 0.0 0.00 0.00 0.00 87 1012.9
20260502040030 11 0 0.0 1.6 0.00 0.00 0.00 87 1013.0
20260502035514 11 0 0.0 1.6 0.00 0.00 0.00 87 1013.0
20260502035014 11 0 0.0 1.6 0.00 0.00 0.00 87 1013.0
20260502034532 11 0 0.0 1.6 0.00 0.00 0.00 87 1013.1
20260502034016 11 0 0.0 1.6 0.00 0.00 0.00 88 1013.0
20260502033514 11 0 0.0 1.6 0.00 0.00 0.00 88 1013.0
20260502033031 11 0 0.0 1.6 0.00 0.00 0.00 88 1012.8
20260502032513 11 0 0.0 1.6 0.00 0.00 0.00 88 1013.0
20260502032013 11 0 0.0 1.6 0.00 0.00 0.00 87 1013.0
20260502031530 11 0 0.0 1.6 0.00 0.00 0.00 87 1013.0
20260502031013 11 0 0.0 1.6 0.00 0.00 0.00 87 1013.1
20260502030517 11 0 0.0 0.0 0.00 0.00 0.00 87 1013.1
20260502030030 11 0 0.0 0.0 0.00 0.00 0.00 87 1013.2
20260502025515 11 0 0.0 0.0 0.00 0.00 0.00 86 1013.3
20260502025013 11 0 0.0 1.6 0.00 0.00 0.00 87 1013.3
20260502024535 11 0 0.0 3.2 0.00 0.00 0.00 86 1013.3
20260502024010 11 0 0.0 4.8 0.00 0.00 0.00 86 1013.4
20260502023513 11 0 0.0 4.8 0.00 0.00 0.00 86 1013.2
20260502023028 11 0 0.0 0.0 0.00 0.00 0.00 86 1013.3
20260502022513 11 0 0.0 0.0 0.00 0.00 0.00 86 1013.4
20260502022019 11 0 0.0 0.0 0.00 0.00 0.00 86 1013.5
20260502021530 11 0 0.0 0.0 0.00 0.00 0.00 86 1013.5
20260502021013 11 0 0.0 0.0 0.00 0.00 0.00 86 1013.4
20260502020513 11 0 0.0 0.0 0.00 0.00 0.00 86 1013.3
20260502020030 11 0 0.0 0.0 0.00 0.00 0.00 86 1013.4
20260502015513 11 0 0.0 0.0 0.00 0.00 0.00 85 1013.4
20260502015018 11 0 0.0 0.0 0.00 0.00 0.00 85 1013.3
20260502014532 12 0 0.0 0.0 0.00 0.00 0.00 85 1013.3
20260502014013 12 0 0.0 0.0 0.00 0.00 0.00 85 1013.3
20260502013510 12 0 0.0 0.0 0.00 0.00 0.00 85 1013.3
20260502013029 12 0 0.0 1.6 0.00 0.00 0.00 85 1013.4
20260502012513 12 0 0.0 1.6 0.00 0.00 0.00 85 1013.4
20260502012016 11 0 0.0 0.0 0.00 0.00 0.00 85 1013.3
20260502011550 11 0 0.0 0.0 0.00 0.00 0.00 85 1013.4
20260502011014 11 0 0.0 0.0 0.00 0.00 0.00 84 1013.1
20260502010513 11 0 0.0 0.0 0.00 0.00 0.00 84 1012.8
20260502010031 11 0 0.0 0.0 0.00 0.00 0.00 84 1012.7
20260502005513 11 0 0.0 0.0 0.00 0.00 0.00 84 1012.9
20260502005013 11 0 0.0 0.0 0.00 0.00 0.00 84 1013.1
20260502004550 11 0 0.0 0.0 0.00 0.00 0.00 84 1012.8
20260502004010 11 0 0.0 0.0 0.00 0.00 0.00 84 1012.5
20260502003510 11 0 0.0 0.0 0.00 0.00 0.00 83 1012.6
20260502003029 11 0 0.0 0.0 0.00 0.00 0.00 83 1012.5
20260502002514 11 0 0.0 0.0 0.00 0.00 0.00 82 1012.5
20260502002013 11 0 0.0 0.0 0.00 0.00 0.00 81 1012.3
20260502001537 11 0 0.0 0.0 0.00 0.00 0.00 81 1012.3
20260502001013 12 0 0.0 0.0 0.00 0.00 0.00 80 1012.4
20260502000513 12 0 0.0 0.0 0.00 0.00 0.00 80 1012.4
20260502000031 12 0 0.0 0.0 0.00 0.00 0.00 79 1012.6
20260501235519 12 0 0.0 1.6 0.00 0.00 0.00 79 1012.6
20260501235010 12 0 0.0 1.6 0.00 0.00 0.00 79 1012.5
20260501234537 12 0 0.0 4.8 0.00 0.00 0.00 78 1012.5
20260501234013 12 0 0.0 4.8 0.00 0.00 0.00 77 1012.5
20260501233513 12 161 0.0 3.2 0.00 0.00 0.00 78 1012.4
20260501233030 12 0 0.0 3.2 0.00 0.00 0.00 78 1012.5
20260501232518 12 136 0.0 1.6 0.00 0.00 0.00 78 1012.6
20260501232012 12 0 0.0 1.6 0.00 0.00 0.00 77 1012.4
20260501231538 12 0 0.0 1.6 0.00 0.00 0.00 77 1012.5
20260501231011 12 0 0.0 1.6 0.00 0.00 0.00 77 1012.5
20260501230513 13 0 0.0 1.6 0.00 0.00 0.00 76 1012.5
20260501230028 13 0 0.0 3.2 0.00 0.00 0.00 76 1012.5
20260501225513 13 0 0.0 3.2 0.00 0.00 0.00 75 1012.4
20260501225016 13 128 0.0 3.2 0.00 0.00 0.00 74 1012.6
20260501224531 13 139 0.0 4.8 0.00 0.00 0.00 75 1012.6
20260501224013 13 0 0.0 6.4 0.00 0.00 0.00 75 1012.9
20260501223514 13 264 1.6 6.4 0.00 0.00 0.00 74 1013.0
20260501223029 13 258 1.6 4.8 0.00 0.00 0.00 75 1013.1
20260501222510 13 242 0.0 4.8 0.00 0.00 0.00 75 1013.1
20260501222013 13 0 0.0 6.4 0.00 0.00 0.00 75 1013.2
20260501221529 13 0 0.0 6.4 0.00 0.00 0.00 76 1013.3
20260501221010 13 220 0.0 4.8 0.00 0.00 0.00 78 1013.3
20260501220510 13 243 0.0 4.8 0.00 0.00 0.00 77 1013.4
20260501220039 13 166 1.6 6.4 0.00 0.00 0.00 76 1013.4
20260501215511 12 254 1.6 6.4 0.00 0.00 0.00 76 1013.4
20260501215013 13 132 1.6 6.4 0.00 0.00 0.00 76 1013.3
20260501214531 13 257 1.6 8.0 0.00 0.00 0.00 76 1013.4
20260501214013 13 280 0.0 8.0 0.00 0.00 0.00 76 1013.2
20260501213514 13 0 0.0 4.8 0.00 0.00 0.00 76 1013.4
20260501213032 13 0 0.0 9.7 0.00 0.00 0.00 77 1013.3
20260501212509 12 120 1.6 9.7 0.00 0.00 0.00 76 1013.2
20260501212009 12 0 1.6 9.7 0.00 0.00 0.00 76 1013.4
20260501211528 12 169 1.6 6.4 0.00 0.00 0.00 75 1013.4
20260501211010 12 169 1.6 9.7 0.00 0.00 0.00 74 1013.4
20260501210509 12 35 1.6 9.7 0.00 0.00 0.00 74 1013.4
20260501210028 12 233 1.6 6.4 0.00 0.00 0.00 74 1013.6
20260501205510 12 265 0.0 6.4 0.00 0.00 0.00 75 1013.5
20260501205011 12 167 1.6 6.4 0.00 0.00 0.00 75 1013.7
20260501204529 12 169 1.6 4.8 0.00 0.00 0.00 75 1013.5
20260501204013 12 176 0.0 6.4 0.00 0.00 0.00 75 1013.6
20260501203509 13 217 1.6 6.4 0.00 0.00 0.00 74 1013.7
20260501203030 13 0 1.6 11.3 0.00 0.00 0.00 72 1013.5
20260501202515 13 141 1.6 11.3 0.00 0.00 0.00 69 1013.6
20260501202008 14 151 1.6 9.7 0.00 0.00 0.00 68 1013.6
20260501201528 15 217 3.2 9.7 0.00 0.00 0.00 65 1013.4
20260501201014 15 193 1.6 8.0 0.00 0.00 0.00 62 1013.7
20260501200524 16 136 1.6 9.7 0.00 0.00 0.00 59 1013.8
20260501200028 16 121 1.6 9.7 0.00 0.00 0.00 59 1013.8
20260501195510 16 0 0.0 8.0 0.00 0.00 0.00 58 1013.8
20260501195009 16 88 1.6 8.0 0.00 0.00 0.00 58 1013.9
20260501194530 16 166 0.0 8.0 0.00 0.00 0.00 56 1013.9
20260501194009 17 160 1.6 8.0 0.00 0.00 0.00 57 1013.7
20260501193510 17 84 1.6 6.4 0.00 0.00 0.00 56 1013.8
20260501193036 17 110 0.0 8.0 0.00 0.00 0.00 56 1013.5
20260501192510 17 239 1.6 8.0 0.00 0.00 0.00 53 1013.8
20260501192013 18 164 1.6 8.0 0.00 0.00 0.00 56 1013.8
20260501191534 18 0 0.0 8.0 0.00 0.00 0.00 57 1014.0
20260501191014 18 192 1.6 8.0 0.00 0.00 0.00 57 1014.1
20260501190515 18 0 1.6 8.0 0.00 0.00 0.00 54 1014.1
20260501190049 17 213 3.2 8.0 0.00 0.00 0.00 55 1014.2
20260501185513 18 0 1.6 8.0 0.00 0.00 0.00 54 1014.2
20260501185013 17 246 1.6 8.0 0.00 0.00 0.00 57 1014.5
20260501184535 17 169 1.6 8.0 0.00 0.00 0.00 54 1014.5
20260501184012 17 0 1.6 12.9 0.00 0.00 0.00 54 1014.6